Tracking 19817 objects as of 19-Aug-2019
HD Live streaming from Space Station
objects crossing your sky now

ARIANE 5 R/B

Track ARIANE 5 R/B now!


NORAD ID: 40942
Int'l Code: 2015-054C
Perigee: 255.8 km
Apogee: 33,684.7 km
Inclination: 6.4 °
Period: 591.5 minutes
Semi major axis: 23341 km
RCS: Unknown
Launch date: September 30, 2015
Source: France (FR)
Launch site: FRENCH GUIANA (FRGUI)

Note: This is a ROCKET BODY
aabbcc
Your satellite tracking list
Your tracking list is empty




NASA's NSSDC Master Catalog

Two Line Element Set (TLE):
1 40942U 15054C   19230.24588626 +.00000562 +00000-0 +22807-3 0  9995
2 40942 006.3825 243.0143 7160890 323.6897 004.3050 02.43453272033629
Source of the keplerian elements: AFSPC